Location: Natural Bridges National Monument
(37.6093°N, 109.9767°W)
Time: 21:31:24
(UTC-06:00)

Cosmos 1727 Rocket - Visible Passes

Search period start: 29 July 2016 00:00
Search period end: 08 August 2016 00:00
Orbit: 960 x 997 km, 82.9° (Epoch: 29 July)

Date Brightness Start Highest point End Pass type
(mag) Time Alt. Az. Time Alt. Az. Time Alt. Az.
29 Jul 6.3 00:48:27 10° WNW 00:50:03 11° W 00:51:39 10° W visible
29 Jul 5.3 21:41:25 10° NNE 21:46:09 22° ENE 21:48:47 17° ESE visible
29 Jul 4.6 23:25:56 10° NNW 23:31:50 49° W 23:33:32 39° SW visible
30 Jul 4.5 22:06:58 10° N 22:12:48 42° ENE 22:15:11 30° SE visible
30 Jul 5.6 23:53:00 10° NNW 23:57:55 26° W 23:59:56 22° WSW visible
31 Jul 3.9 22:33:04 10° N 22:39:16 80° E 22:41:38 40° SSE visible
01 Aug 6.3 00:21:17 10° NW 00:23:50 13° W 00:26:23 10° WSW visible
01 Aug 5.4 21:15:19 10° NNE 21:19:46 20° ENE 21:23:20 13° ESE visible
01 Aug 4.5 22:59:32 10° NNW 23:05:32 55° W 23:08:05 33° SSW visible
02 Aug 4.6 21:40:44 10° N 21:46:27 38° ENE 21:49:50 22° SE visible
02 Aug 5.5 23:26:30 10° NNW 23:31:40 29° W 23:34:34 20° SW visible
03 Aug 3.9 22:06:45 10° N 22:12:56 72° E 22:16:20 28° SSE visible
03 Aug 6.3 23:54:25 10° NW 23:57:37 15° W 00:00:48 10° WSW visible
04 Aug 5.5 20:49:14 10° NNE 20:53:21 18° ENE 20:57:28 10° ESE visible
04 Aug 4.3 22:33:10 10° NNW 22:39:15 61° W 22:42:53 25° SSW visible
05 Aug 4.7 21:14:30 10° NNE 21:20:04 34° ENE 21:24:43 14° SE visible
05 Aug 5.4 23:00:01 10° NNW 23:05:24 32° W 23:09:29 16° SW visible
06 Aug 4.0 21:40:26 10° N 21:46:37 64° E 21:51:20 18° SSE visible
06 Aug 6.3 23:27:41 10° NW 23:31:22 17° W 23:35:05 10° WSW visible
07 Aug 4.2 22:06:48 10° NNW 22:12:57 69° W 22:18:00 16° S visible
